Time,TemperatureF,DewpointF,PressureIn,WindDirection,WindDirectionDegrees,WindSpeedMPH,WindSpeedGustMPH,Humidity,HourlyPrecipIn,Conditions,Clouds,dailyrainin,SoftwareType,DateUTC
2013-02-07 00:03:00,46.0,45.0,30.39,West,270,4.0,4.2,96,0.00,,,0.00,Rainwise IP-100,2013-02-07 08:03:00,
2013-02-07 00:08:00,46.1,45.0,30.39,WNW,292,4.9,7.5,96,0.00,,,0.00,Rainwise IP-100,2013-02-07 08:08:00,
2013-02-07 00:13:00,46.3,45.0,30.39,WSW,247,2.3,5.6,96,0.00,,,0.00,Rainwise IP-100,2013-02-07 08:13:00,
2013-02-07 00:18:00,46.4,45.0,30.39,SW,225,2.1,7.2,96,0.00,,,0.00,Rainwise IP-100,2013-02-07 08:18:00,
2013-02-07 00:23:00,46.5,46.0,30.39,WNW,292,1.6,5.1,96,0.00,,,0.00,Rainwise IP-100,2013-02-07 08:23:00,
2013-02-07 00:28:00,46.5,46.0,30.39,West,270,3.3,5.8,96,0.00,,,0.00,Rainwise IP-100,2013-02-07 08:28:00,
2013-02-07 00:33:00,46.6,46.0,30.38,WNW,292,2.8,6.1,96,0.00,,,0.00,Rainwise IP-100,2013-02-07 08:33:00,
2013-02-07 00:38:00,46.6,45.0,30.38,WSW,247,2.1,5.4,95,0.00,,,0.00,Rainwise IP-100,2013-02-07 08:38:00,
2013-02-07 00:43:00,46.6,45.0,30.38,WSW,247,1.9,4.7,95,0.00,,,0.00,Rainwise IP-100,2013-02-07 08:43:00,
2013-02-07 00:48:00,46.6,45.0,30.38,WSW,247,2.6,4.7,95,0.00,,,0.00,Rainwise IP-100,2013-02-07 08:48:00,
2013-02-07 00:53:00,46.5,45.0,30.38,West,270,1.9,6.1,95,0.00,,,0.00,Rainwise IP-100,2013-02-07 08:53:00,
2013-02-07 00:58:00,46.6,45.0,30.38,WNW,292,2.8,4.4,95,0.00,,,0.00,Rainwise IP-100,2013-02-07 08:58:00,
2013-02-07 01:03:00,46.5,46.0,30.38,SSW,202,1.6,4.2,96,0.00,,,0.00,Rainwise IP-100,2013-02-07 09:03:00,
2013-02-07 01:08:00,46.3,45.0,30.38,WSW,247,0.0,2.1,96,0.00,,,0.00,Rainwise IP-100,2013-02-07 09:08:00,
2013-02-07 01:13:00,46.3,45.0,30.38,West,270,2.6,4.0,96,0.00,,,0.00,Rainwise IP-100,2013-02-07 09:13:00,
2013-02-07 01:18:00,46.3,45.0,30.38,WNW,292,3.0,3.0,96,0.00,,,0.00,Rainwise IP-100,2013-02-07 09:18:00,
2013-02-07 01:23:00,46.3,45.0,30.38,WNW,292,2.3,4.2,96,0.00,,,0.00,Rainwise IP-100,2013-02-07 09:23:00,
2013-02-07 01:28:00,46.3,45.0,30.39,WNW,292,2.3,4.0,96,0.00,,,0.00,Rainwise IP-100,2013-02-07 09:28:00,
2013-02-07 01:33:00,46.4,45.0,30.38,WNW,292,2.6,4.9,96,0.00,,,0.00,Rainwise IP-100,2013-02-07 09:33:00,
2013-02-07 01:38:00,46.4,44.0,30.38,WNW,292,1.9,5.4,95,0.00,,,0.00,Rainwise IP-100,2013-02-07 09:38:00,
2013-02-07 01:43:00,46.4,44.0,30.38,WNW,292,2.3,3.5,95,0.00,,,0.00,Rainwise IP-100,2013-02-07 09:43:00,
2013-02-07 01:48:00,46.4,44.0,30.38,West,270,2.6,4.2,95,0.00,,,0.00,Rainwise IP-100,2013-02-07 09:48:00,
2013-02-07 01:53:00,46.5,45.0,30.38,WNW,292,1.4,4.7,95,0.00,,,0.00,Rainwise IP-100,2013-02-07 09:53:00,
2013-02-07 01:58:00,46.5,45.0,30.38,WNW,292,1.6,3.0,94,0.00,,,0.00,Rainwise IP-100,2013-02-07 09:58:00,
2013-02-07 02:03:00,46.5,45.0,30.38,WSW,247,0.0,2.3,94,0.00,,,0.00,Rainwise IP-100,2013-02-07 10:03:00,
2013-02-07 02:08:00,46.5,45.0,30.38,West,270,1.6,1.6,94,0.00,,,0.00,Rainwise IP-100,2013-02-07 10:08:00,
2013-02-07 02:13:00,46.6,45.0,30.38,WNW,292,1.2,2.6,94,0.00,,,0.00,Rainwise IP-100,2013-02-07 10:13:00,
2013-02-07 02:18:00,46.8,45.0,30.38,WNW,292,1.4,1.9,94,0.00,,,0.00,Rainwise IP-100,2013-02-07 10:18:00,
2013-02-07 02:23:00,46.7,45.0,30.38,WNW,292,1.4,2.1,94,0.00,,,0.00,Rainwise IP-100,2013-02-07 10:23:00,
2013-02-07 02:28:00,46.6,45.0,30.38,WNW,292,1.6,2.3,94,0.00,,,0.00,Rainwise IP-100,2013-02-07 10:28:00,
2013-02-07 02:33:00,46.6,45.0,30.37,WNW,292,1.2,2.1,94,0.00,,,0.00,Rainwise IP-100,2013-02-07 10:33:00,
2013-02-07 02:38:00,46.7,45.0,30.37,WSW,247,3.0,3.3,93,0.00,,,0.00,Rainwise IP-100,2013-02-07 10:38:00,
2013-02-07 02:43:00,46.7,45.0,30.37,WSW,247,0.0,3.3,93,0.00,,,0.00,Rainwise IP-100,2013-02-07 10:43:00,
2013-02-07 02:48:00,46.5,45.0,30.37,WSW,247,1.6,1.9,93,0.00,,,0.00,Rainwise IP-100,2013-02-07 10:48:00,
2013-02-07 02:53:00,46.5,45.0,30.37,WSW,247,1.4,1.9,93,0.00,,,0.00,Rainwise IP-100,2013-02-07 10:53:00,
2013-02-07 02:58:00,46.5,45.0,30.37,WNW,292,1.6,2.8,94,0.00,,,0.00,Rainwise IP-100,2013-02-07 10:58:00,
2013-02-07 03:03:00,46.6,45.0,30.37,SW,225,1.6,2.8,94,0.00,,,0.00,Rainwise IP-100,2013-02-07 11:03:00,
2013-02-07 03:08:00,46.6,45.0,30.37,NW,315,1.2,2.6,93,0.00,,,0.00,Rainwise IP-100,2013-02-07 11:08:00,
2013-02-07 03:13:00,46.6,45.0,30.36,North,360,0.0,2.6,93,0.00,,,0.00,Rainwise IP-100,2013-02-07 11:13:00,
2013-02-07 03:18:00,46.6,45.0,30.36,North,360,0.0,0.0,93,0.00,,,0.00,Rainwise IP-100,2013-02-07 11:18:00,
2013-02-07 03:23:00,46.5,45.0,30.36,North,360,0.0,1.4,93,0.00,,,0.00,Rainwise IP-100,2013-02-07 11:23:00,
2013-02-07 03:28:00,46.2,44.0,30.36,North,360,0.0,1.4,93,0.00,,,0.00,Rainwise IP-100,2013-02-07 11:28:00,
2013-02-07 03:33:00,46.0,44.0,30.36,North,360,0.0,0.0,94,0.00,,,0.00,Rainwise IP-100,2013-02-07 11:33:00,
2013-02-07 03:38:00,45.8,44.0,30.36,North,360,0.0,0.0,94,0.00,,,0.00,Rainwise IP-100,2013-02-07 11:38:00,
2013-02-07 03:43:00,45.7,44.0,30.36,North,360,0.0,0.0,94,0.00,,,0.00,Rainwise IP-100,2013-02-07 11:43:00,
2013-02-07 03:48:00,45.7,44.0,30.36,North,360,0.0,1.2,94,0.00,,,0.00,Rainwise IP-100,2013-02-07 11:48:00,
2013-02-07 03:53:00,45.8,44.0,30.35,North,360,0.0,0.0,95,0.00,,,0.00,Rainwise IP-100,2013-02-07 11:53:00,
2013-02-07 03:58:00,45.9,44.0,30.35,ENE,67,0.0,0.0,95,0.00,,,0.00,Rainwise IP-100,2013-02-07 11:58:00,
2013-02-07 04:03:00,46.0,44.0,30.35,ENE,67,0.0,0.0,95,0.00,,,0.00,Rainwise IP-100,2013-02-07 12:03:00,
2013-02-07 04:08:00,46.1,44.0,30.36,ENE,67,0.0,0.0,95,0.00,,,0.00,Rainwise IP-100,2013-02-07 12:08:00,
2013-02-07 04:13:00,46.2,44.0,30.36,ENE,67,0.0,0.0,95,0.00,,,0.00,Rainwise IP-100,2013-02-07 12:13:00,
2013-02-07 04:18:00,46.2,44.0,30.35,ENE,67,0.0,1.2,95,0.00,,,0.00,Rainwise IP-100,2013-02-07 12:18:00,
2013-02-07 04:23:00,46.1,44.0,30.36,ENE,67,0.0,0.0,94,0.00,,,0.00,Rainwise IP-100,2013-02-07 12:23:00,
2013-02-07 04:28:00,46.1,44.0,30.36,ENE,67,0.0,0.0,94,0.00,,,0.00,Rainwise IP-100,2013-02-07 12:28:00,
2013-02-07 04:33:00,46.0,44.0,30.35,ENE,67,0.0,0.0,95,0.00,,,0.00,Rainwise IP-100,2013-02-07 12:33:00,
2013-02-07 04:38:00,46.0,44.0,30.35,ENE,67,0.0,0.0,95,0.00,,,0.00,Rainwise IP-100,2013-02-07 12:38:00,
2013-02-07 04:43:00,46.0,44.0,30.35,ENE,67,0.0,0.0,95,0.00,,,0.00,Rainwise IP-100,2013-02-07 12:43:00,
2013-02-07 04:48:00,46.0,44.0,30.35,ENE,67,0.0,0.0,95,0.00,,,0.00,Rainwise IP-100,2013-02-07 12:48:00,
2013-02-07 04:53:00,46.0,44.0,30.35,ENE,67,0.0,0.0,95,0.00,,,0.00,Rainwise IP-100,2013-02-07 12:53:00,
2013-02-07 04:58:00,46.0,44.0,30.35,ENE,67,0.0,0.0,95,0.00,,,0.00,Rainwise IP-100,2013-02-07 12:58:00,
2013-02-07 05:03:00,46.0,44.0,30.35,ENE,67,0.0,0.0,95,0.00,,,0.00,Rainwise IP-100,2013-02-07 13:03:00,
2013-02-07 05:08:00,46.0,44.0,30.35,ENE,67,0.0,0.0,95,0.00,,,0.00,Rainwise IP-100,2013-02-07 13:08:00,
2013-02-07 05:13:00,46.0,44.0,30.34,ENE,67,0.0,1.4,95,0.00,,,0.00,Rainwise IP-100,2013-02-07 13:13:00,
2013-02-07 05:18:00,46.0,44.0,30.34,ENE,67,0.0,1.9,95,0.00,,,0.00,Rainwise IP-100,2013-02-07 13:18:00,
2013-02-07 05:23:00,45.9,44.0,30.34,ENE,67,0.0,0.0,95,0.00,,,0.00,Rainwise IP-100,2013-02-07 13:23:00,
2013-02-07 05:28:00,45.8,44.0,30.34,NNE,22,0.0,2.3,95,0.00,,,0.00,Rainwise IP-100,2013-02-07 13:28:00,
2013-02-07 05:33:00,45.7,44.0,30.34,NNE,22,2.1,2.1,94,0.00,,,0.00,Rainwise IP-100,2013-02-07 13:33:00,
2013-02-07 05:38:00,45.5,44.0,30.34,NNE,22,1.6,2.8,94,0.00,,,0.00,Rainwise IP-100,2013-02-07 13:38:00,
2013-02-07 05:43:00,45.4,43.0,30.34,ENE,67,2.1,2.8,94,0.00,,,0.00,Rainwise IP-100,2013-02-07 13:43:00,
2013-02-07 05:48:00,45.4,43.0,30.34,ENE,67,0.0,2.1,94,0.00,,,0.00,Rainwise IP-100,2013-02-07 13:48:00,
2013-02-07 05:53:00,45.2,43.0,30.33,ENE,67,0.0,0.0,94,0.00,,,0.00,Rainwise IP-100,2013-02-07 13:53:00,
2013-02-07 05:58:00,45.0,43.0,30.33,NNE,22,1.6,3.3,94,0.00,,,0.00,Rainwise IP-100,2013-02-07 13:58:00,
2013-02-07 06:03:00,44.8,43.0,30.33,NNE,22,0.0,2.6,94,0.00,,,0.00,Rainwise IP-100,2013-02-07 14:03:00,
2013-02-07 06:08:00,44.6,44.0,30.33,NNE,22,1.2,1.6,95,0.00,,,0.00,Rainwise IP-100,2013-02-07 14:08:00,
2013-02-07 06:13:00,44.6,44.0,30.33,NNE,22,1.2,1.9,95,0.00,,,0.00,Rainwise IP-100,2013-02-07 14:13:00,
2013-02-07 06:18:00,44.6,44.0,30.33,NNE,22,1.2,3.0,95,0.00,,,0.00,Rainwise IP-100,2013-02-07 14:18:00,
2013-02-07 06:23:00,44.7,44.0,30.33,ENE,67,0.0,3.3,95,0.00,,,0.00,Rainwise IP-100,2013-02-07 14:23:00,
2013-02-07 06:28:00,44.8,44.0,30.33,NNE,22,0.0,2.1,95,0.00,,,0.00,Rainwise IP-100,2013-02-07 14:28:00,
2013-02-07 06:33:00,44.8,44.0,30.33,NNE,22,1.2,1.6,95,0.00,,,0.00,Rainwise IP-100,2013-02-07 14:33:00,
2013-02-07 06:38:00,44.8,44.0,30.33,NE,45,0.0,2.8,95,0.00,,,0.00,Rainwise IP-100,2013-02-07 14:38:00,
2013-02-07 06:43:00,44.9,44.0,30.33,ENE,67,0.0,3.0,95,0.00,,,0.00,Rainwise IP-100,2013-02-07 14:43:00,
2013-02-07 06:48:00,45.0,43.0,30.33,ENE,67,0.0,2.1,94,0.00,,,0.00,Rainwise IP-100,2013-02-07 14:48:00,
2013-02-07 06:53:00,45.1,43.0,30.32,ENE,67,1.2,3.7,94,0.00,,,0.00,Rainwise IP-100,2013-02-07 14:53:00,
2013-02-07 06:58:00,45.1,43.0,30.33,NNW,337,1.9,3.3,94,0.00,,,0.00,Rainwise IP-100,2013-02-07 14:58:00,
2013-02-07 07:03:00,45.2,43.0,30.33,NNW,337,0.0,2.6,94,0.00,,,0.00,Rainwise IP-100,2013-02-07 15:03:00,
2013-02-07 07:08:00,45.3,43.0,30.33,NNE,22,2.8,2.8,94,0.00,,,0.00,Rainwise IP-100,2013-02-07 15:08:00,
2013-02-07 07:13:00,45.4,43.0,30.33,NNW,337,2.6,3.3,93,0.00,,,0.00,Rainwise IP-100,2013-02-07 15:13:00,
2013-02-07 07:18:00,45.6,44.0,30.33,SSW,202,0.0,4.4,93,0.00,,,0.00,Rainwise IP-100,2013-02-07 15:18:00,
2013-02-07 07:23:00,45.7,44.0,30.33,SSE,157,0.0,0.0,93,0.00,,,0.00,Rainwise IP-100,2013-02-07 15:23:00,
2013-02-07 07:28:00,45.9,44.0,30.33,East,90,0.0,1.4,93,0.00,,,0.00,Rainwise IP-100,2013-02-07 15:28:00,
2013-02-07 07:33:00,46.2,44.0,30.33,East,90,0.0,1.2,93,0.00,,,0.00,Rainwise IP-100,2013-02-07 15:33:00,
2013-02-07 07:38:00,46.2,44.0,30.33,East,90,1.9,1.9,93,0.06,,,0.01,Rainwise IP-100,2013-02-07 15:38:00,
2013-02-07 07:43:00,46.1,44.0,30.33,East,90,1.4,3.0,93,0.06,,,0.01,Rainwise IP-100,2013-02-07 15:43:00,
2013-02-07 07:48:00,46.0,44.0,30.33,East,90,2.1,2.3,94,0.00,,,0.01,Rainwise IP-100,2013-02-07 15:48:00,
2013-02-07 07:53:00,46.0,44.0,30.33,ESE,112,1.4,2.8,94,0.00,,,0.01,Rainwise IP-100,2013-02-07 15:53:00,
2013-02-07 07:58:00,46.0,44.0,30.33,ESE,112,0.0,1.6,94,0.00,,,0.01,Rainwise IP-100,2013-02-07 15:58:00,
2013-02-07 08:03:00,46.2,44.0,30.33,ESE,112,2.6,2.8,95,0.00,,,0.02,Rainwise IP-100,2013-02-07 16:03:00,
2013-02-07 08:08:00,46.4,44.0,30.33,SSE,157,2.6,4.7,95,0.06,,,0.02,Rainwise IP-100,2013-02-07 16:08:00,
2013-02-07 08:13:00,46.5,45.0,30.33,SW,225,3.5,5.4,95,0.06,,,0.02,Rainwise IP-100,2013-02-07 16:13:00,
2013-02-07 08:18:00,46.9,45.0,30.34,SSE,157,2.8,8.9,95,0.00,,,0.02,Rainwise IP-100,2013-02-07 16:18:00,
2013-02-07 08:23:00,47.3,47.0,30.34,SSE,157,3.7,7.0,96,0.00,,,0.02,Rainwise IP-100,2013-02-07 16:23:00,
2013-02-07 08:28:00,47.6,47.0,30.34,ESE,112,4.4,11.0,96,0.06,,,0.03,Rainwise IP-100,2013-02-07 16:28:00,
2013-02-07 08:33:00,47.6,47.0,30.34,SW,225,4.0,8.9,96,0.06,,,0.03,Rainwise IP-100,2013-02-07 16:33:00,
2013-02-07 08:38:00,47.6,47.0,30.34,SSW,202,4.0,13.1,96,0.06,,,0.04,Rainwise IP-100,2013-02-07 16:38:00,
2013-02-07 08:43:00,47.6,47.0,30.35,WNW,292,5.4,11.4,96,0.12,,,0.05,Rainwise IP-100,2013-02-07 16:43:00,
2013-02-07 08:48:00,47.6,47.0,30.36,WNW,292,6.8,10.0,96,0.18,,,0.07,Rainwise IP-100,2013-02-07 16:48:00,
2013-02-07 08:53:00,47.4,47.0,30.36,West,270,1.4,10.5,96,0.18,,,0.08,Rainwise IP-100,2013-02-07 16:53:00,
2013-02-07 08:58:00,46.9,45.0,30.36,WSW,247,2.1,10.7,94,0.12,,,0.09,Rainwise IP-100,2013-02-07 16:58:00,
2013-02-07 09:03:00,46.5,44.0,30.36,West,270,2.1,4.2,92,0.06,,,0.09,Rainwise IP-100,2013-02-07 17:03:00,
2013-02-07 09:08:00,46.4,44.0,30.35,West,270,0.0,3.3,92,0.06,,,0.10,Rainwise IP-100,2013-02-07 17:08:00,
2013-02-07 09:13:00,46.5,44.0,30.36,West,270,1.4,4.7,92,0.06,,,0.10,Rainwise IP-100,2013-02-07 17:13:00,
2013-02-07 09:18:00,46.6,45.0,30.35,West,270,0.0,1.6,93,0.00,,,0.10,Rainwise IP-100,2013-02-07 17:18:00,
2013-02-07 09:23:00,46.7,45.0,30.36,West,270,0.0,0.0,93,0.00,,,0.10,Rainwise IP-100,2013-02-07 17:23:00,
2013-02-07 09:28:00,47.0,45.0,30.36,SW,225,0.0,2.8,93,0.00,,,0.10,Rainwise IP-100,2013-02-07 17:28:00,
2013-02-07 09:33:00,47.3,46.0,30.36,SSW,202,1.6,2.6,94,0.00,,,0.10,Rainwise IP-100,2013-02-07 17:33:00,
2013-02-07 09:38:00,47.4,46.0,30.36,WSW,247,2.3,4.7,94,0.00,,,0.10,Rainwise IP-100,2013-02-07 17:38:00,
2013-02-07 09:43:00,47.7,46.0,30.36,SSE,157,1.9,5.8,93,0.00,,,0.10,Rainwise IP-100,2013-02-07 17:43:00,
2013-02-07 09:48:00,48.0,47.0,30.36,SW,225,3.5,6.1,93,0.00,,,0.10,Rainwise IP-100,2013-02-07 17:48:00,
2013-02-07 09:53:00,48.5,47.5,30.36,SSW,202,4.4,5.6,93,0.00,,,0.10,Rainwise IP-100,2013-02-07 17:53:00,
2013-02-07 09:58:00,49.0,47.5,30.37,WSW,247,1.9,6.8,93,0.00,,,0.10,Rainwise IP-100,2013-02-07 17:58:00,
2013-02-07 10:03:00,49.4,47.0,30.37,SW,225,6.8,7.2,92,0.00,,,0.10,Rainwise IP-100,2013-02-07 18:03:00,
2013-02-07 10:08:00,49.3,47.0,30.36,WSW,247,3.5,8.2,92,0.00,,,0.10,Rainwise IP-100,2013-02-07 18:08:00,
2013-02-07 10:13:00,49.1,47.0,30.36,SSE,157,1.2,6.8,92,0.00,,,0.10,Rainwise IP-100,2013-02-07 18:13:00,
2013-02-07 10:18:00,49.1,47.0,30.36,WNW,292,2.1,9.3,91,0.00,,,0.10,Rainwise IP-100,2013-02-07 18:18:00,
2013-02-07 10:23:00,49.6,47.5,30.37,ESE,112,0.0,6.3,91,0.00,,,0.10,Rainwise IP-100,2013-02-07 18:23:00,
2013-02-07 10:28:00,50.2,47.0,30.37,SSW,202,2.6,8.6,90,0.00,,,0.10,Rainwise IP-100,2013-02-07 18:28:00,
2013-02-07 10:33:00,50.6,47.5,30.36,SSW,202,3.7,6.3,89,0.00,,,0.10,Rainwise IP-100,2013-02-07 18:33:00,
2013-02-07 10:38:00,50.9,47.5,30.36,West,270,4.7,9.8,87,0.00,,,0.10,Rainwise IP-100,2013-02-07 18:38:00,
2013-02-07 10:43:00,50.7,46.0,30.36,WNW,292,6.5,9.8,85,0.00,,,0.10,Rainwise IP-100,2013-02-07 18:43:00,
2013-02-07 10:48:00,50.5,46.0,30.36,NNW,337,9.3,10.7,83,0.00,,,0.10,Rainwise IP-100,2013-02-07 18:48:00,
2013-02-07 10:53:00,50.6,46.0,30.36,NW,315,9.8,9.8,83,0.00,,,0.10,Rainwise IP-100,2013-02-07 18:53:00,
2013-02-07 10:58:00,50.4,45.0,30.36,West,270,4.9,11.2,82,0.00,,,0.10,Rainwise IP-100,2013-02-07 18:58:00,
2013-02-07 11:03:00,50.7,45.0,30.36,South,180,0.0,7.2,82,0.00,,,0.10,Rainwise IP-100,2013-02-07 19:03:00,
2013-02-07 11:08:00,51.5,47.0,30.36,WSW,247,4.2,9.1,83,0.00,,,0.10,Rainwise IP-100,2013-02-07 19:08:00,
2013-02-07 11:13:00,51.7,47.0,30.36,WNW,292,9.6,10.5,82,0.00,,,0.10,Rainwise IP-100,2013-02-07 19:13:00,
2013-02-07 11:18:00,51.5,47.0,30.36,WNW,292,0.0,9.6,82,0.00,,,0.10,Rainwise IP-100,2013-02-07 19:18:00,
2013-02-07 11:23:00,51.5,47.0,30.36,WSW,247,3.0,9.3,82,0.00,,,0.10,Rainwise IP-100,2013-02-07 19:23:00,
2013-02-07 11:28:00,51.3,46.0,30.36,WSW,247,3.7,12.4,82,0.00,,,0.10,Rainwise IP-100,2013-02-07 19:28:00,
2013-02-07 11:33:00,51.1,46.0,30.36,WNW,292,2.3,11.2,82,0.00,,,0.10,Rainwise IP-100,2013-02-07 19:33:00,
2013-02-07 11:38:00,51.4,47.0,30.36,WSW,247,7.0,9.8,83,0.00,,,0.10,Rainwise IP-100,2013-02-07 19:38:00,
2013-02-07 11:43:00,51.8,47.0,30.36,NW,315,1.9,10.5,83,0.00,,,0.10,Rainwise IP-100,2013-02-07 19:43:00,
2013-02-07 11:48:00,52.1,47.0,30.35,NW,315,3.0,13.3,82,0.00,,,0.10,Rainwise IP-100,2013-02-07 19:48:00,
2013-02-07 11:53:00,52.0,47.0,30.35,WSW,247,1.9,12.8,81,0.00,,,0.10,Rainwise IP-100,2013-02-07 19:53:00,
2013-02-07 11:58:00,51.9,47.0,30.35,ENE,67,1.2,12.8,81,0.00,,,0.10,Rainwise IP-100,2013-02-07 19:58:00,
2013-02-07 12:03:00,52.1,47.0,30.35,NNW,337,0.0,8.4,81,0.00,,,0.10,Rainwise IP-100,2013-02-07 20:03:00,
2013-02-07 12:08:00,52.2,47.0,30.35,SSW,202,4.9,8.4,81,0.00,,,0.10,Rainwise IP-100,2013-02-07 20:08:00,
2013-02-07 12:13:00,51.6,47.0,30.35,WNW,292,6.1,11.7,81,0.00,,,0.10,Rainwise IP-100,2013-02-07 20:13:00,
2013-02-07 12:18:00,51.0,47.0,30.34,SSW,202,2.6,6.8,83,0.00,,,0.10,Rainwise IP-100,2013-02-07 20:18:00,
2013-02-07 12:23:00,50.8,47.0,30.34,WSW,247,3.3,11.4,85,0.00,,,0.10,Rainwise IP-100,2013-02-07 20:23:00,
2013-02-07 12:28:00,50.5,46.0,30.34,SSE,157,6.3,10.5,84,0.00,,,0.10,Rainwise IP-100,2013-02-07 20:28:00,
2013-02-07 12:33:00,50.2,45.0,30.33,South,180,7.7,13.3,84,0.00,,,0.10,Rainwise IP-100,2013-02-07 20:33:00,
2013-02-07 12:38:00,50.8,47.0,30.33,WSW,247,4.7,8.6,85,0.00,,,0.10,Rainwise IP-100,2013-02-07 20:38:00,
2013-02-07 12:43:00,51.7,47.0,30.33,NW,315,2.8,10.3,83,0.00,,,0.10,Rainwise IP-100,2013-02-07 20:43:00,
2013-02-07 12:48:00,51.8,46.0,30.33,WNW,292,3.5,12.8,79,0.00,,,0.10,Rainwise IP-100,2013-02-07 20:48:00,
2013-02-07 12:53:00,51.8,45.0,30.33,NW,315,5.4,11.4,77,0.00,,,0.10,Rainwise IP-100,2013-02-07 20:53:00,
2013-02-07 12:58:00,51.8,45.0,30.33,NNE,22,2.3,12.4,77,0.00,,,0.10,Rainwise IP-100,2013-02-07 20:58:00,
2013-02-07 13:03:00,52.1,45.0,30.33,WNW,292,11.4,12.8,76,0.00,,,0.10,Rainwise IP-100,2013-02-07 21:03:00,
2013-02-07 13:08:00,52.0,44.0,30.33,WSW,247,11.2,12.8,75,0.00,,,0.10,Rainwise IP-100,2013-02-07 21:08:00,
2013-02-07 13:13:00,51.9,44.0,30.33,SSE,157,4.0,11.2,75,0.00,,,0.10,Rainwise IP-100,2013-02-07 21:13:00,
2013-02-07 13:18:00,52.3,44.0,30.33,WNW,292,10.0,10.0,75,0.00,,,0.10,Rainwise IP-100,2013-02-07 21:18:00,
2013-02-07 13:23:00,52.2,44.0,30.32,WNW,292,8.9,14.2,74,0.00,,,0.10,Rainwise IP-100,2013-02-07 21:23:00,
2013-02-07 13:28:00,51.5,44.0,30.32,WSW,247,3.5,15.2,74,0.00,,,0.10,Rainwise IP-100,2013-02-07 21:28:00,
2013-02-07 13:33:00,51.4,44.0,30.33,WNW,292,5.8,10.7,75,0.00,,,0.10,Rainwise IP-100,2013-02-07 21:33:00,
2013-02-07 13:38:00,51.8,44.0,30.33,West,270,4.7,15.6,74,0.00,,,0.10,Rainwise IP-100,2013-02-07 21:38:00,
2013-02-07 13:43:00,52.0,43.0,30.32,East,90,1.4,14.0,72,0.00,,,0.10,Rainwise IP-100,2013-02-07 21:43:00,
2013-02-07 13:48:00,52.2,42.0,30.32,WNW,292,2.6,14.5,69,0.00,,,0.10,Rainwise IP-100,2013-02-07 21:48:00,
2013-02-07 13:53:00,52.5,42.0,30.32,NW,315,6.8,12.1,68,0.00,,,0.10,Rainwise IP-100,2013-02-07 21:53:00,
2013-02-07 13:58:00,52.8,42.0,30.31,WNW,292,8.6,13.3,68,0.00,,,0.10,Rainwise IP-100,2013-02-07 21:58:00,
2013-02-07 14:03:00,52.5,42.0,30.31,WSW,247,1.6,16.1,68,0.00,,,0.10,Rainwise IP-100,2013-02-07 22:03:00,
2013-02-07 14:08:00,52.0,42.0,30.31,WNW,292,4.2,15.6,68,0.00,,,0.10,Rainwise IP-100,2013-02-07 22:08:00,
2013-02-07 14:13:00,52.1,42.0,30.31,West,270,2.6,10.0,68,0.00,,,0.10,Rainwise IP-100,2013-02-07 22:13:00,
2013-02-07 14:18:00,52.8,43.0,30.31,WSW,247,5.4,9.8,69,0.00,,,0.10,Rainwise IP-100,2013-02-07 22:18:00,
2013-02-07 14:23:00,52.8,42.0,30.31,WNW,292,7.2,11.2,67,0.00,,,0.10,Rainwise IP-100,2013-02-07 22:23:00,
2013-02-07 14:28:00,52.5,41.0,30.31,WNW,292,3.3,14.0,66,0.00,,,0.10,Rainwise IP-100,2013-02-07 22:28:00,
2013-02-07 14:33:00,52.9,41.0,30.31,NNE,22,2.1,8.9,66,0.00,,,0.10,Rainwise IP-100,2013-02-07 22:33:00,
2013-02-07 14:38:00,53.0,41.0,30.31,WNW,292,2.1,13.5,66,0.00,,,0.10,Rainwise IP-100,2013-02-07 22:38:00,
2013-02-07 14:43:00,52.4,41.0,30.31,West,270,8.9,12.8,67,0.00,,,0.10,Rainwise IP-100,2013-02-07 22:43:00,
2013-02-07 14:48:00,52.2,41.0,30.31,WSW,247,7.0,15.9,66,0.00,,,0.10,Rainwise IP-100,2013-02-07 22:48:00,
2013-02-07 14:53:00,52.0,41.0,30.31,WNW,292,7.5,15.9,66,0.00,,,0.10,Rainwise IP-100,2013-02-07 22:53:00,
2013-02-07 14:58:00,51.8,41.0,30.31,WNW,292,7.7,13.3,67,0.00,,,0.10,Rainwise IP-100,2013-02-07 22:58:00,
2013-02-07 15:03:00,51.6,41.0,30.31,NE,45,1.4,14.2,67,0.00,,,0.10,Rainwise IP-100,2013-02-07 23:03:00,
2013-02-07 15:08:00,51.4,40.0,30.31,West,270,3.7,12.6,67,0.00,,,0.10,Rainwise IP-100,2013-02-07 23:08:00,
2013-02-07 15:13:00,51.6,42.0,30.30,SW,225,3.0,13.8,68,0.00,,,0.10,Rainwise IP-100,2013-02-07 23:13:00,
2013-02-07 15:18:00,51.9,42.0,30.31,West,270,11.0,13.5,68,0.00,,,0.10,Rainwise IP-100,2013-02-07 23:18:00,
2013-02-07 15:23:00,51.9,42.0,30.31,WNW,292,4.2,12.1,68,0.00,,,0.10,Rainwise IP-100,2013-02-07 23:23:00,
2013-02-07 15:28:00,51.7,42.0,30.31,WNW,292,4.7,14.2,69,0.00,,,0.10,Rainwise IP-100,2013-02-07 23:28:00,
2013-02-07 15:33:00,51.4,41.0,30.31,WNW,292,5.6,12.8,69,0.00,,,0.10,Rainwise IP-100,2013-02-07 23:33:00,
2013-02-07 15:38:00,50.9,42.0,30.31,West,270,12.4,13.8,70,0.00,,,0.10,Rainwise IP-100,2013-02-07 23:38:00,
2013-02-07 15:43:00,50.9,42.0,30.31,West,270,4.4,15.2,71,0.00,,,0.10,Rainwise IP-100,2013-02-07 23:43:00,
2013-02-07 15:48:00,50.9,42.0,30.31,WNW,292,10.7,13.1,70,0.00,,,0.10,Rainwise IP-100,2013-02-07 23:48:00,
2013-02-07 15:53:00,50.7,41.0,30.30,West,270,1.4,13.1,70,0.00,,,0.10,Rainwise IP-100,2013-02-07 23:53:00,
2013-02-07 15:58:00,51.0,41.0,30.30,West,270,9.8,13.1,69,0.00,,,0.10,Rainwise IP-100,2013-02-07 23:58:00,
2013-02-07 16:03:00,51.2,41.0,30.31,WNW,292,6.5,11.9,68,0.00,,,0.10,Rainwise IP-100,2013-02-08 00:03:00,
2013-02-07 16:08:00,51.5,42.0,30.30,SSW,202,4.7,10.5,68,0.00,,,0.10,Rainwise IP-100,2013-02-08 00:08:00,
2013-02-07 16:13:00,51.7,42.0,30.30,WNW,292,4.2,10.7,68,0.00,,,0.10,Rainwise IP-100,2013-02-08 00:13:00,
2013-02-07 16:18:00,51.9,42.0,30.30,SW,225,2.3,10.5,68,0.00,,,0.10,Rainwise IP-100,2013-02-08 00:18:00,
2013-02-07 16:23:00,51.8,42.0,30.30,WNW,292,3.3,10.7,68,0.00,,,0.10,Rainwise IP-100,2013-02-08 00:23:00,
2013-02-07 16:28:00,51.6,42.0,30.30,SSW,202,0.0,9.8,68,0.00,,,0.10,Rainwise IP-100,2013-02-08 00:28:00,
2013-02-07 16:33:00,51.3,40.0,30.30,West,270,7.2,11.0,66,0.00,,,0.10,Rainwise IP-100,2013-02-08 00:33:00,
2013-02-07 16:38:00,50.8,40.0,30.30,WNW,292,1.6,11.0,65,0.00,,,0.10,Rainwise IP-100,2013-02-08 00:38:00,
2013-02-07 16:43:00,50.6,39.0,30.30,ENE,67,1.2,9.1,66,0.00,,,0.10,Rainwise IP-100,2013-02-08 00:43:00,
2013-02-07 16:48:00,50.4,39.0,30.30,WNW,292,8.9,10.7,66,0.00,,,0.10,Rainwise IP-100,2013-02-08 00:48:00,
2013-02-07 16:53:00,50.1,39.0,30.29,WNW,292,2.6,12.8,67,0.00,,,0.10,Rainwise IP-100,2013-02-08 00:53:00,
2013-02-07 16:58:00,49.9,39.0,30.29,SW,225,4.7,10.5,68,0.00,,,0.10,Rainwise IP-100,2013-02-08 00:58:00,
2013-02-07 17:03:00,49.8,39.0,30.29,WNW,292,4.9,11.4,68,0.00,,,0.10,Rainwise IP-100,2013-02-08 01:03:00,
2013-02-07 17:08:00,49.6,40.0,30.29,WNW,292,3.7,7.9,69,0.00,,,0.10,Rainwise IP-100,2013-02-08 01:08:00,
2013-02-07 17:13:00,49.6,39.0,30.29,West,270,4.0,7.9,68,0.00,,,0.10,Rainwise IP-100,2013-02-08 01:13:00,
2013-02-07 17:18:00,49.4,38.0,30.29,SW,225,0.0,8.9,67,0.00,,,0.10,Rainwise IP-100,2013-02-08 01:18:00,
2013-02-07 17:23:00,49.1,38.0,30.28,SSW,202,6.8,9.1,67,0.00,,,0.10,Rainwise IP-100,2013-02-08 01:23:00,
2013-02-07 17:28:00,48.8,38.0,30.28,SSE,157,3.0,10.7,67,0.00,,,0.10,Rainwise IP-100,2013-02-08 01:28:00,
2013-02-07 17:33:00,48.5,38.0,30.28,SW,225,4.0,8.9,67,0.00,,,0.10,Rainwise IP-100,2013-02-08 01:33:00,
2013-02-07 17:38:00,48.2,38.0,30.28,South,180,1.9,9.3,68,0.00,,,0.10,Rainwise IP-100,2013-02-08 01:38:00,
2013-02-07 17:43:00,48.1,38.0,30.28,WSW,247,4.0,8.4,69,0.00,,,0.10,Rainwise IP-100,2013-02-08 01:43:00,
2013-02-07 17:48:00,47.9,39.0,30.28,West,270,1.9,7.9,70,0.00,,,0.10,Rainwise IP-100,2013-02-08 01:48:00,
2013-02-07 17:53:00,47.7,38.0,30.27,West,270,2.3,7.9,71,0.00,,,0.10,Rainwise IP-100,2013-02-08 01:53:00,
2013-02-07 17:58:00,47.6,39.0,30.28,WSW,247,1.9,7.9,72,0.00,,,0.10,Rainwise IP-100,2013-02-08 01:58:00,
2013-02-07 18:03:00,47.6,39.0,30.27,WSW,247,1.6,5.6,72,0.00,,,0.10,Rainwise IP-100,2013-02-08 02:03:00,
2013-02-07 18:08:00,47.5,39.0,30.27,WSW,247,0.0,4.7,73,0.00,,,0.10,Rainwise IP-100,2013-02-08 02:08:00,
2013-02-07 18:13:00,47.4,39.0,30.27,NW,315,2.1,4.4,73,0.00,,,0.10,Rainwise IP-100,2013-02-08 02:13:00,
2013-02-07 18:18:00,47.3,39.0,30.27,WNW,292,0.0,5.1,74,0.00,,,0.10,Rainwise IP-100,2013-02-08 02:18:00,
2013-02-07 18:23:00,47.3,40.0,30.27,SW,225,5.4,6.3,75,0.00,,,0.10,Rainwise IP-100,2013-02-08 02:23:00,
2013-02-07 18:28:00,47.3,40.0,30.27,WSW,247,1.2,5.4,75,0.00,,,0.10,Rainwise IP-100,2013-02-08 02:28:00,
2013-02-07 18:33:00,47.2,39.0,30.27,SSE,157,1.9,5.4,76,0.00,,,0.10,Rainwise IP-100,2013-02-08 02:33:00,
2013-02-07 18:38:00,47.2,39.0,30.26,SW,225,1.2,5.6,76,0.00,,,0.10,Rainwise IP-100,2013-02-08 02:38:00,
2013-02-07 18:43:00,47.2,39.0,30.27,SSW,202,0.0,4.2,76,0.00,,,0.10,Rainwise IP-100,2013-02-08 02:43:00,
2013-02-07 18:48:00,47.2,39.0,30.26,SW,225,1.9,4.9,76,0.00,,,0.10,Rainwise IP-100,2013-02-08 02:48:00,
2013-02-07 18:53:00,47.1,39.0,30.26,SW,225,2.1,7.5,76,0.00,,,0.10,Rainwise IP-100,2013-02-08 02:53:00,
2013-02-07 18:58:00,47.1,40.0,30.26,West,270,2.8,6.3,77,0.00,,,0.10,Rainwise IP-100,2013-02-08 02:58:00,
2013-02-07 19:03:00,47.2,40.0,30.26,NNW,337,5.6,8.4,77,0.00,,,0.10,Rainwise IP-100,2013-02-08 03:03:00,
2013-02-07 19:08:00,46.6,40.0,30.27,WNW,292,5.4,14.9,78,0.00,,,0.10,Rainwise IP-100,2013-02-08 03:08:00,
2013-02-07 19:13:00,45.4,39.0,30.28,NW,315,7.7,10.0,81,0.18,,,0.13,Rainwise IP-100,2013-02-08 03:13:00,
2013-02-07 19:18:00,44.3,39.0,30.28,WNW,292,6.1,12.6,84,0.36,,,0.16,Rainwise IP-100,2013-02-08 03:18:00,
2013-02-07 19:23:00,43.7,40.0,30.28,West,270,4.0,14.2,86,0.36,,,0.19,Rainwise IP-100,2013-02-08 03:23:00,
2013-02-07 19:28:00,43.6,41.0,30.28,SSW,202,1.6,8.2,89,0.36,,,0.22,Rainwise IP-100,2013-02-08 03:28:00,
2013-02-07 19:33:00,43.6,41.0,30.27,SW,225,1.6,4.0,90,0.30,,,0.24,Rainwise IP-100,2013-02-08 03:33:00,
2013-02-07 19:38:00,43.6,41.0,30.28,West,270,1.6,6.3,91,0.30,,,0.27,Rainwise IP-100,2013-02-08 03:38:00,
2013-02-07 19:43:00,43.5,42.0,30.27,WSW,247,2.8,5.6,92,0.24,,,0.28,Rainwise IP-100,2013-02-08 03:43:00,
2013-02-07 19:48:00,43.5,42.0,30.27,WNW,292,3.5,4.9,93,0.12,,,0.29,Rainwise IP-100,2013-02-08 03:48:00,
2013-02-07 19:53:00,43.5,42.0,30.27,WNW,292,0.0,5.1,93,0.06,,,0.29,Rainwise IP-100,2013-02-08 03:53:00,
2013-02-07 19:58:00,43.6,42.0,30.26,West,270,0.0,3.3,94,0.00,,,0.29,Rainwise IP-100,2013-02-08 03:58:00,
2013-02-07 20:03:00,43.6,42.0,30.26,SW,225,3.5,3.5,94,0.00,,,0.29,Rainwise IP-100,2013-02-08 04:03:00,
2013-02-07 20:08:00,43.6,42.0,30.26,SW,225,4.7,4.7,94,0.00,,,0.29,Rainwise IP-100,2013-02-08 04:08:00,
2013-02-07 20:13:00,43.7,42.0,30.26,WSW,247,1.6,4.9,94,0.00,,,0.29,Rainwise IP-100,2013-02-08 04:13:00,
2013-02-07 20:18:00,43.7,42.0,30.26,WSW,247,2.3,3.5,94,0.00,,,0.29,Rainwise IP-100,2013-02-08 04:18:00,
2013-02-07 20:23:00,43.7,42.0,30.26,WSW,247,0.0,4.0,94,0.00,,,0.29,Rainwise IP-100,2013-02-08 04:23:00,
2013-02-07 20:28:00,43.9,42.0,30.26,SW,225,1.2,5.1,93,0.00,,,0.29,Rainwise IP-100,2013-02-08 04:28:00,
2013-02-07 20:33:00,44.0,42.0,30.26,SSE,157,1.6,4.0,93,0.00,,,0.29,Rainwise IP-100,2013-02-08 04:33:00,
2013-02-07 20:38:00,44.2,42.0,30.26,SW,225,1.2,4.0,94,0.00,,,0.29,Rainwise IP-100,2013-02-08 04:38:00,
2013-02-07 20:43:00,44.3,42.0,30.26,WSW,247,0.0,5.6,94,0.00,,,0.29,Rainwise IP-100,2013-02-08 04:43:00,
2013-02-07 20:48:00,44.5,43.0,30.26,WSW,247,1.2,4.0,94,0.00,,,0.29,Rainwise IP-100,2013-02-08 04:48:00,
2013-02-07 20:53:00,44.6,44.0,30.26,WNW,292,0.0,4.9,95,0.00,,,0.29,Rainwise IP-100,2013-02-08 04:53:00,
2013-02-07 20:58:00,44.6,43.0,30.26,WSW,247,3.0,7.0,94,0.06,,,0.30,Rainwise IP-100,2013-02-08 04:58:00,
2013-02-07 21:00:00,44.6,43.0,30.25,SSW,202,1.6,7.0,94,0.06,,,0.30,Rainwise IP-100,2013-02-08 05:00:00,
2013-02-07 21:05:00,44.6,43.0,30.25,SW,225,3.5,4.2,94,0.06,,,0.30,Rainwise IP-100,2013-02-08 05:05:00,
2013-02-07 21:10:00,44.4,42.0,30.25,SW,225,1.6,7.0,94,0.00,,,0.30,Rainwise IP-100,2013-02-08 05:10:00,
2013-02-07 21:15:00,44.0,42.0,30.25,WSW,247,3.7,4.7,94,0.00,,,0.30,Rainwise IP-100,2013-02-08 05:15:00,
2013-02-07 21:20:00,43.9,42.0,30.24,WSW,247,1.4,4.4,93,0.00,,,0.30,Rainwise IP-100,2013-02-08 05:20:00,
2013-02-07 21:25:00,44.0,42.0,30.24,SW,225,1.9,3.0,93,0.00,,,0.30,Rainwise IP-100,2013-02-08 05:25:00,
2013-02-07 21:30:00,44.0,42.0,30.24,SW,225,0.0,3.3,93,0.00,,,0.30,Rainwise IP-100,2013-02-08 05:30:00,
2013-02-07 21:35:00,43.9,42.0,30.24,SW,225,0.0,1.6,93,0.00,,,0.30,Rainwise IP-100,2013-02-08 05:35:00,
2013-02-07 21:40:00,43.9,42.0,30.24,WSW,247,0.0,2.1,93,0.00,,,0.30,Rainwise IP-100,2013-02-08 05:40:00,
2013-02-07 21:45:00,43.8,42.0,30.24,WSW,247,0.0,2.1,94,0.00,,,0.30,Rainwise IP-100,2013-02-08 05:45:00,
2013-02-07 21:50:00,43.8,42.0,30.24,WSW,247,0.0,2.8,93,0.00,,,0.30,Rainwise IP-100,2013-02-08 05:50:00,
2013-02-07 21:55:00,43.8,42.0,30.24,West,270,1.6,1.9,93,0.00,,,0.30,Rainwise IP-100,2013-02-08 05:55:00,
2013-02-07 22:00:00,43.8,42.0,30.24,West,270,1.4,2.6,94,0.00,,,0.30,Rainwise IP-100,2013-02-08 06:00:00,
2013-02-07 22:05:00,43.7,42.0,30.23,West,270,1.2,2.3,94,0.00,,,0.30,Rainwise IP-100,2013-02-08 06:05:00,
2013-02-07 22:10:00,43.7,42.0,30.23,West,270,2.3,2.8,94,0.00,,,0.30,Rainwise IP-100,2013-02-08 06:10:00,
2013-02-07 22:15:00,43.9,42.0,30.23,WNW,292,1.6,3.7,94,0.00,,,0.30,Rainwise IP-100,2013-02-08 06:15:00,
2013-02-07 22:20:00,43.9,42.0,30.23,WNW,292,1.2,2.8,94,0.00,,,0.30,Rainwise IP-100,2013-02-08 06:20:00,
2013-02-07 22:25:00,43.8,42.0,30.23,WNW,292,1.6,3.7,94,0.00,,,0.30,Rainwise IP-100,2013-02-08 06:25:00,
2013-02-07 22:28:00,43.8,42.0,30.23,WNW,292,2.8,3.5,93,0.00,,,0.30,Rainwise IP-100,2013-02-08 06:28:00,
2013-02-07 22:31:00,43.8,42.0,30.23,West,270,2.1,3.3,93,0.00,,,0.30,Rainwise IP-100,2013-02-08 06:31:00,
2013-02-07 22:33:00,43.8,42.0,30.23,West,270,0.0,3.0,93,0.00,,,0.30,Rainwise IP-100,2013-02-08 06:33:00,
2013-02-07 22:39:00,43.8,42.0,30.23,West,270,2.8,3.5,93,0.00,,,0.30,Rainwise IP-100,2013-02-08 06:39:00,
2013-02-07 22:44:00,43.7,42.0,30.23,WNW,292,2.6,3.0,93,0.00,,,0.30,Rainwise IP-100,2013-02-08 06:44:00,
2013-02-07 22:49:00,43.7,42.0,30.22,WSW,247,1.9,3.0,93,0.00,,,0.30,Rainwise IP-100,2013-02-08 06:49:00,
2013-02-07 22:54:00,43.6,42.0,30.22,WNW,292,0.0,3.0,93,0.00,,,0.30,Rainwise IP-100,2013-02-08 06:54:00,
2013-02-07 22:59:00,43.5,42.0,30.22,WNW,292,0.0,3.5,93,0.00,,,0.30,Rainwise IP-100,2013-02-08 06:59:00,
2013-02-07 23:04:00,43.4,41.0,30.22,WNW,292,1.6,4.7,93,0.00,,,0.30,Rainwise IP-100,2013-02-08 07:04:00,
2013-02-07 23:09:00,43.4,41.0,30.22,West,270,0.0,3.7,92,0.00,,,0.30,Rainwise IP-100,2013-02-08 07:09:00,
2013-02-07 23:14:00,43.4,41.0,30.22,WNW,292,4.9,4.9,92,0.00,,,0.30,Rainwise IP-100,2013-02-08 07:14:00,
2013-02-07 23:19:00,43.4,40.0,30.22,West,270,1.9,4.9,91,0.00,,,0.30,Rainwise IP-100,2013-02-08 07:19:00,
2013-02-07 23:24:00,43.3,40.0,30.21,WNW,292,3.0,3.7,91,0.00,,,0.30,Rainwise IP-100,2013-02-08 07:24:00,
2013-02-07 23:29:00,43.1,40.0,30.21,WNW,292,1.6,3.5,91,0.00,,,0.30,Rainwise IP-100,2013-02-08 07:29:00,
2013-02-07 23:34:00,42.8,40.0,30.22,NW,315,2.3,4.0,91,0.00,,,0.30,Rainwise IP-100,2013-02-08 07:34:00,
2013-02-07 23:39:00,42.7,41.0,30.21,NW,315,3.7,3.7,92,0.00,,,0.30,Rainwise IP-100,2013-02-08 07:39:00,
2013-02-07 23:44:00,42.8,41.0,30.21,West,270,2.3,4.2,92,0.00,,,0.30,Rainwise IP-100,2013-02-08 07:44:00,
2013-02-07 23:49:00,42.9,41.0,30.21,West,270,3.3,3.7,92,0.00,,,0.30,Rainwise IP-100,2013-02-08 07:49:00,
2013-02-07 23:54:00,42.9,41.0,30.21,SW,225,1.4,4.9,92,0.00,,,0.30,Rainwise IP-100,2013-02-08 07:54:00,
2013-02-07 23:59:00,42.8,41.0,30.21,WSW,247,3.5,4.2,92,0.00,,,0.30,Rainwise IP-100,2013-02-08 07:59:00,